Location: Shepherdstown, WV
(39.4326°N, 77.8042°W)
Time: 19:43:12
(UTC-04:00)

Transit 4A - Visible Passes

Search period start: 28 July 2021 00:00
Search period end: 07 August 2021 00:00
Orbit: 872 x 972 km, 66.8° (Epoch: 28 July)

Date Brightness Start Highest point End Pass type
(mag) Time Alt. Az. Time Alt. Az. Time Alt. Az.
28 Jul 9.3 00:56:58 24° ENE 00:56:58 24° ENE 00:59:55 10° NE visible
28 Jul 8.6 02:40:28 39° WNW 02:41:02 40° NW 02:46:31 10° NNE visible
29 Jul 8.9 01:05:53 35° ENE 01:05:53 35° ENE 01:09:35 10° NE visible
29 Jul 9.1 02:49:22 26° WNW 02:50:31 28° NW 02:55:31 10° N visible
30 Jul 8.4 01:14:45 50° NE 01:14:45 50° NE 01:19:02 10° NNE visible
30 Jul 9.6 02:58:14 18° WNW 03:00:07 20° NW 03:04:22 10° N visible
31 Jul 8.2 01:23:35 59° N 01:23:35 59° N 01:28:21 10° NNE visible
31 Jul 10.0 03:07:04 11° WNW 03:09:48 15° NW 03:12:57 10° N visible
31 Jul 9.7 23:48:53 16° ENE 23:48:53 16° ENE 23:50:24 10° NE visible
01 Aug 8.4 01:32:22 50° NW 01:32:22 50° NW 01:37:33 10° NNE visible
01 Aug 10.3 03:18:39 10° NW 03:19:36 10° NW 03:20:32 10° NNW visible
01 Aug 9.3 23:57:37 24° ENE 23:57:37 24° ENE 00:00:16 10° NE visible
02 Aug 8.9 01:41:06 35° WNW 01:41:17 35° NW 01:46:37 10° NNE visible
03 Aug 8.8 00:06:19 36° ENE 00:06:19 36° ENE 00:09:51 10° NE visible
03 Aug 9.4 01:49:47 24° WNW 01:50:48 25° NW 01:55:34 10° N visible
04 Aug 8.3 00:14:56 51° NE 00:14:56 51° NE 00:19:15 10° NNE visible
04 Aug 9.9 01:58:24 15° WNW 02:00:26 18° NW 02:04:20 10° N visible
04 Aug 9.8 22:40:01 12° ENE 22:40:01 12° ENE 22:40:40 10° ENE visible
05 Aug 8.2 00:23:28 60° NNW 00:23:28 60° NNW 00:28:31 10° NNE visible
05 Aug 10.3 02:07:33 10° WNW 02:10:09 13° NW 02:12:45 10° NNW visible
05 Aug 9.3 22:48:28 20° ENE 22:48:28 20° ENE 22:50:50 10° NE visible
06 Aug 8.6 00:31:55 45° WNW 00:32:04 45° NW 00:37:40 10° NNE visible
06 Aug 8.6 22:56:48 34° ENE 22:56:48 34° ENE 23:00:34 10° NE visible
